CHAR37 Weather Reports


time (UTC)temp
F
wind
direction
speed
knots
gust
knots
rain 1hr
in
rain 24hr
in
rain mn
in
humidity
%
barometer
mb
20260505004548 50 163 4.3 9.6 0.00 0.00 0.00 78 1006.6
20260505003055 50 113 4.3 7.8 0.00 0.00 0.00 78 1006.4
20260505001554 50 140 4.3 7.8 0.00 0.00 0.00 77 1006.1
20260505000054 51 150 2.6 6.1 0.00 0.00 0.00 76 1006.1
20260504234557 51 133 2.6 7.8 0.00 0.00 0.00 75 1005.9
20260504233049 52 130 2.6 7.8 0.00 0.00 0.00 73 1005.5
20260504231600 53 140 1.7 5.2 0.00 0.00 0.00 72 1005.3
20260504230049 53 155 5.2 7.8 0.00 0.00 0.00 71 1005.2
20260504224546 52 146 3.5 8.7 0.00 0.00 0.00 74 1005.1
20260504223050 53 178 4.3 8.7 0.00 0.00 0.00 73 1005.0
20260504221558 53 196 4.3 8.7 0.00 0.00 0.00 73 1004.9
20260504220049 53 167 7.0 11.3 0.00 0.00 0.00 71 1004.9
20260504214548 52 158 5.2 8.7 0.00 0.00 0.00 75 1004.9
20260504194607 53 0 1.7 3.5 0.00 0.00 0.00 74 1004.9
20260504193058 52 0 1.7 4.3 0.00 0.00 0.00 73 1005.1
20260504191552 52 0 0.9 4.3 0.00 0.00 0.00 73 1005.1
20260504190125 52 144 2.6 4.3 0.00 0.00 0.00 73 1005.3
20260504184557 52 165 2.6 6.1 0.00 0.00 0.00 73 1005.4
20260504183047 52 134 2.6 4.3 0.00 0.00 0.00 73 1005.3
20260504181603 52 167 1.7 7.8 0.00 0.00 0.00 73 1005.2
20260504180138 51 178 8.7 11.3 0.00 0.00 0.00 74 1005.3
20260504174551 51 176 6.1 13.0 0.00 0.00 0.00 74 1005.3
20260504173059 50 182 11.3 15.6 0.00 0.00 0.00 75 1005.1
20260504171551 50 166 11.3 17.4 0.00 0.00 0.00 74 1005.1
20260504034552 44 259 0.9 5.2 0.00 0.01 0.01 67 1007.2
20260504033050 45 261 2.6 5.2 0.00 0.01 0.01 65 1007.1